Regional Weather Roundup
Issued by NWS

Home | Current Version | Previous Version | Graphics & Text | Print | Product List | Glossary On
Versions: 1 2 3 4 5 6 7 8 9 10 11 12 13 14 15 16 17 18 19 20 21 22 23 24 25 26 27 28 29 30 31 32 33 34 35 36 37 38 39 40 41 42 43 44 45 46 47 48 49 50
000
ASUS45 KTFX 261519
RWRMT
MONTANA HOURLY WEATHER ROUNDUP
NATIONAL WEATHER SERVICE GREAT FALLS MT
819 AM MST WED NOV 26 2014

NOTE: "FAIR" INDICATES FEW OR NO CLOUDS BELOW 12000 FEET WITH NO
SIGNIFICANT WEATHER AND/OR OBSTRUCTIONS TO VISIBILITY.

* THESE STATIONS ARE NOT UNDER NWS QUALITY CONTROL. THEY DO NOT
   REPORT WEATHER SUCH AS PRECIPITATION OR FOG.

MTZ001>007-043-261600-
WEST OF THE DIVIDE
CITY           SKY/WX    TMP DP  RH WIND       PRES   REMARKS
KALISPELL      LGT SNOW  30  30 100 CALM      30.14S VSB 1/2
MISSOULA       FOG       30  30 100 SE3       30.16R VSB 3
BUTTE          CLOUDY    28  27  96 SE3       30.09S
MULLAN PASS    LGT SNOW  34  30  85 NW8       30.08R VSB M1/4 WCI  27
* ESSEX        N/A       29  27  92 NW1        N/A
* EUREKA APT   PTCLDY    30  30 100 CALM      30.16S VSB 1 3/4
* LIBBY APT    PTSUNNY   32  30  92 CALM      30.14F VSB 1 3/4
* LINCOLN      N/A       28  27  96 S1         N/A
* LOOKOUT PASS N/A       35  34  96 N8         N/A   WCI  28
* POLSON       N/A       30  30 100 N/A        N/A
* RONAN APT    CLOUDY    30  28  92 N/A        N/A
* SEELEY LAKE  N/A       28  27  96 N/A        N/A
* THOMP F APT  CLOUDY    29  28  96 N2         N/A
* YAAK HILL    N/A       32  30  92 N/A        N/A
$$

MTZ008-052>055-261600-
SOUTHWEST MONTANA
CITY           SKY/WX    TMP DP  RH WIND       PRES   REMARKS
BOZEMAN        CLOUDY    28  27  96 CALM      30.13R
DILLON         PTCLDY    43  30  60 W23G31    30.09S
* W YELLOWSTON CLOUDY    34  32  92 SW7G17     N/A   WCI  28
* ENNIS APT    PTSUNNY   39  32  76 SE5        N/A   WCI  35
* THREE FORKS  PTSUNNY   28   7  41 N/A        N/A
* BOULDER HILL N/A       25  23  92 S10        N/A   WCI  15
* MONIDA PASS  N/A       27  27 100 SE11G16    N/A   WCI  17
* RAYNOLDS PAS N/A       40  32  73 SW8G16     N/A   WCI  35
* WHITEHALL    N/A       29  28  96 N/A        N/A
* WISE RIVER   N/A       40  32  73 NW14G26    N/A   WCI  32
$$

MTZ009>010-012-014-046-048-049-054-261600-
EAST SLOPES AND CENTRAL MONTANA
CITY           SKY/WX    TMP DP  RH WIND       PRES   REMARKS
CUT BANK       LGT SNOW  27  25  92 SE6       30.11S VSB 2 1/2 WCI  20
GREAT FALLS    LGT SNOW  28  28 100 CALM      30.13R VSB 1
HELENA         LGT SNOW  30  28  92 CALM      30.12F VSB 1
MALMSTROM AFB  LGT SNOW  28  28 100 E1        30.16S VSB 2
* CONRAD       CLOUDY    27  27 100 CALM       N/A
* DEARBORN     N/A       31  30  96 N/A        N/A
* EAST GLACIER N/A       23  22  96 SW1        N/A
* MONARCH      N/A       23  20  88 S3         N/A
* PENDROY      N/A       26  26 100 SW1        N/A
* ROGERS PASS  N/A       26  23  88 SE3        N/A
* SAINT MARY   N/A       25  22  88 SE1        N/A
* SWEET GRASS  N/A       26  26 100 S11        N/A   WCI  16
* WHITE SULPH  N/A       25  24  96 N/A        N/A
$$

MTZ011-013-016-021-035-040-045-047-050-051-261600-
NORTH CENTRAL MONTANA
CITY           SKY/WX    TMP DP  RH WIND       PRES   REMARKS
HAVRE          LGT SNOW  27  25  92 E8        30.20F VSB 2 1/2 WCI  19
LEWISTOWN      LGT SNOW  27  25  92 E5        30.14R VSB 2 1/2 WCI  21
* N BAR RANCH  FOG       25  23  92 CALM      30.14S VSB 1 3/4
* CHINOOK      CLOUDY    27  25  92 CALM      30.23R VSB 1
* FORT BENTON  CLOUDY    30  28  92 NE5       30.19S WCI  25
* MALTA APT    CLOUDY    27  19  72 N/A        N/A
* CHESTER      N/A       27  25  92 N/A        N/A
* DENTON       N/A       27  26  96 SE3        N/A
* GEYSER       N/A       25  24  96 N1         N/A
* JUDITH GAP   N/A       23  23 100 SE5        N/A   WCI  16
* LOMA         N/A       29  28  96 NE5        N/A   WCI  24
$$

MTZ017>020-022>027-061-062-261600-
NORTHEAST MONTANA
CITY           SKY/WX    TMP DP  RH WIND       PRES   REMARKS
GLASGOW        CLOUDY    21  16  81 E9        30.26R WCI  11
GLENDIVE       CLOUDY    21  18  88 NE7       30.27R WCI  12
JORDAN         CLOUDY    25  23  92 E5        30.23R WCI  19
SIDNEY         CLOUDY    18  12  77 N7        30.32R WCI   9
WOLF POINT     CLOUDY    19  12  74 E5        30.31R WCI  12
* BEAVER HILL  N/A       18  17  96 N9         N/A   WCI   7
* CIRCLE       N/A       22  20  92 N/A        N/A
* LINDSAY DVD  N/A       19  17  92 NW4        N/A
* NAVAJO       N/A        7   4  87 NE3        N/A
* PLENTYWOOD A PTCLDY     7   1  76 N5        30.31R WCI  -2
* POPLAR APT   PTSUNNY   16  12  84 N/A       30.31R
* SACO         N/A       23  20  88 NE9        N/A   WCI  13
* SCOBEY APT   PTCLDY     7  -2  66 N/A        N/A
$$

MTZ028>042-056>058-261600-
SOUTHCENTRAL AND SOUTHEAST MONTANA
CITY           SKY/WX    TMP DP  RH WIND       PRES   REMARKS
BAKER          LGT SNOW  25  21  85 NW6       30.22R VSB 1    WCI  18
BILLINGS       LGT SNOW  28  27  96 S3        30.18R VSB 1
LIVINGSTON     LGT SNOW  27  25  92 CALM      30.12R VSB 1 1/4
MILES CITY     LGT SNOW  28  25  89 NE3       30.23R VSB 1 1/2
* BIG TIMBER A CLOUDY    25  25 100 CALM      30.14R VSB 1/2
* FORSYTH APT  CLOUDY    28  28 100 CALM      30.23R VSB 1
* LAUREL APT   CLOUDY    27  21  78 N/A        N/A
* ALZADA       N/A       25  24  96 W2         N/A
* HYSHAM       N/A       28  26  92 W5         N/A   WCI  22
* REED POINT   N/A       27  27 100 E2         N/A
* ROSCOE HILL  N/A       23  20  88 SW1        N/A
$$

REGIONAL REPORTS...DAKOTAS
CITY           SKY/WX    TMP DP  RH WIND       PRES   REMARKS
WILLISTON      CLOUDY    10   3  73 N10       30.32R WCI  -4
DICKINSON      LGT SNOW  19  14  81 VRB7      30.22R WCI  10
BEACH          FOG       18  18 100 N6        30.24R WCI  10
CROSBY         LGT SNOW  -2  -4  91 N6        30.36R WCI -14
TIOGA          CLOUDY     7   7 100 N9        30.31R WCI  -6
BISMARCK       LGT SNOW   7   3  83 E3        30.35R VSB 1 3/4
GRAND FORKS    CLOUDY     0  -8  68 N16       30.42R WCI -20
FARGO          CLOUDY     3  -2  79 N18       30.36R WCI -17
BUFFALO SD     CLOUDY    27  21  78 CALM      30.13S
RAPID CITY     LGT SNOW  25  21  85 SE6       30.22R WCI  18
$$

REGIONAL REPORTS...WYOMING/IDAHO/WASHINGTON
CITY           SKY/WX    TMP DP  RH WIND       PRES   REMARKS
GILLETTE       CLOUDY    25  23  92 W6        30.16R WCI  18
SHERIDAN       LGT SNOW  27  25  92 CALM      30.18R VSB 1 3/4
CODY           PTSUNNY   23  23 100 CALM      30.12R
YELLOWSTONE LA PTCLDY    32  28  85 VRB5      30.15R WCI  27
SALMON         CLOUDY    30  30 100 CALM      30.20R VSB M1/4
MULLAN PASS    LGT SNOW  34  30  85 NW8       30.08S VSB M1/4 WCI  27
SAND POINT     N/A       32  32 100 CALM      30.16S VSB 2 1/2
SPOKANE        FOG       34  34 100 CALM      30.14S VSB M1/4
$$

REGIONAL REPORTS...ALBERTA
CITY           SKY/WX    TMP DP  RH WIND       PRES   REMARKS
CALGARY        FOG       23  21  92 S8        30.10R VSB 1 1/2 WCI  14
LETHBRIDGE     CLOUDY    27  27 100 SE8       30.12S WCI  19
MEDICINE HAT   CLOUDY    23  21  92 NE3       30.20S
EDMONTON       CLOUDY    16  12  84 SE6       30.16R WCI   7
WATERTON GATE  N/A       30  23  75 S8         N/A   WCI  22
CARDSTON       N/A       30  27  89 S5         N/A   WCI  25
MILK RIVER     N/A       27  27 100 S7         N/A   WCI  19
$$

REGIONAL REPORTS...SASKATCHEWAN
CITY           SKY/WX    TMP DP  RH WIND       PRES   REMARKS
SWIFT CURRENT  LGT SNOW  10   9  96 E7        30.24R WCI  -1
MOOSE JAW      SNOW       0  -6  75 SE7       30.37R WCI -13
REGINA         SUNNY     -8 -11  86 SE5       30.38R WCI -20
VAL MARIE      N/A       21  19  92 E5         N/A   WCI  14
ASSINIBOIA     N/A        7   3  83 E8         N/A   WCI  -6
CORONACH       N/A        9   5  84 N5         N/A

$$



USA.gov is the U.S. government's official web portal to all federal, state and local government web resources and services.